Miscellaneous Local Product
Issued by NWS Hastings, NE

Home | Current Version | Previous Version | Graphics & Text | Print | Product List | Glossary On
Versions: 1 2 3 4 5 6 7 8 9 10 11 12 13 14 15 16 17 18 19 20 21 22 23 24 25 26 27 28 29 30 31 32 33 34 35 36 37 38 39 40 41 42 43 44 45 46 47 48 49 50
000
AXUS43 KGID 171902
MISGRI

GID CWA HOURLY WEATHER ROUNDUP
NATIONAL WEATHER SERVICE HASTINGS NE
100 PM CST SAT FEB 17 2018

NOTE: "FAIR" INDICATES FEW OR NO CLOUDS BELOW 12,000 FEET WITH NO
SIGNIFICANT WEATHER AND/OR OBSTRUCTIONS TO VISIBILITY.

...SOUTH CENTRAL NEBRASKA...

CITY           SKY/WX    TMP DP  RH WIND       PRES   REMARKS
GRAND ISLAND   SUNNY     46  24  42 W16G23    30.06S
KEARNEY        SUNNY     46  23  40 NW14      30.07F
HASTINGS       SUNNY     45  23  42 W13       30.07S
ORD            SUNNY     45  24  43 N15G24    30.03R
YORK           SUNNY     46  25  42 NW14      30.05S
AURORA         SUNNY     46  22  38 NW18      30.05F
LEXINGTON      SUNNY     43  27  53 W14       30.07S
HOLDREGE       SUNNY     47  24  41 NW13G18   30.07F
HEBRON         SUNNY     51  19  28 NW10      30.08R

...NEBRASKA PANHANDLE...

CITY           SKY/WX    TMP DP  RH WIND       PRES   REMARKS
CHADRON        SUNNY     34  23  64 NW7       30.03F WCI  28
ALLIANCE       SUNNY     43  15  32 W18       30.01F
SCOTTSBLUFF    SUNNY     45  16  31 NW7       30.00F
SIDNEY         SUNNY     46  14  27 NW22G31   30.04F

...WESTERN AND NORTH CENTRAL NEBRASKA...

CITY           SKY/WX    TMP DP  RH WIND       PRES   REMARKS
VALENTINE      MOSUNNY   38  23  55 NW15G24   30.04F WCI  29
AINSWORTH      MOSUNNY   37  25  60 NW15      30.05S WCI  28
ONEILL         SUNNY     38  28  66 NW21G26   30.04S WCI  28
BROKEN BOW     SUNNY     43  25  49 NW15      30.04R
IMPERIAL       SUNNY     46  18  32 NW17      30.09S
NORTH PLATTE   SUNNY     46  22  38 NW17      30.06F
MCCOOK         SUNNY     47  24  40 NW18G26   30.10S

...EASTERN NEBRASKA...

CITY           SKY/WX    TMP DP  RH WIND       PRES   REMARKS
NORFOLK        SUNNY     40  25  55 NW22      30.01R WCI  30
SO SIOUX CITY  SUNNY     35  26  69 NW14      30.02R WCI  26
TEKAMAH        SUNNY     41  29  62 NW12      30.03R
COLUMBUS       SUNNY     40  26  57 NW13      30.05R WCI  32
ALBION         SUNNY     43  24  46 NW17G24   30.03R
OMAHA EPPLEY   SUNNY     45  27  49 NW17G23   30.02R
OFFUTT AFB     SUNNY     46  26  47 NW10      30.02R
MILLARD        SUNNY     45  29  54 NW12      30.03S
LINCOLN        SUNNY     49  22  34 N13       30.06S
NEBRASKA CITY  SUNNY     47  29  50 NW13G18   30.03R
BEATRICE       SUNNY     51  23  34 N17G24    30.06R
FALLS CITY     SUNNY     48  26  42 NW14G24   30.05R

...NORTHERN KANSAS...

CITY           SKY/WX    TMP DP  RH WIND       PRES   REMARKS
GOODLAND       SUNNY     49  14  24 N23G35    30.10F
HILL CITY      SUNNY     54  17  23 NW16G28   30.12F
NORTON         CLEAR     50  14  23 NW21G29   30.10S
PHILLIPSBURG   SUNNY     54  18  24 W15G22    30.10F
SMITH CENTER   SUNNY     50  19  29 W12G17    30.11S
BELOIT         SUNNY     52  19  28 NW13G18   30.11S
HAYS           SUNNY     54  17  23 NW22G30   30.12F
RUSSELL        SUNNY     56  19  23 NW20G26   30.11S
CONCORDIA      SUNNY     52  16  24 NW13G24   30.09S
SALINA         SUNNY     57  19  22 NW20      30.12R
TOPEKA         SUNNY     54  25  32 NW15G25   30.07R



USA.gov is the U.S. government's official web portal to all federal, state and local government web resources and services.